Regional Weather Roundup
Issued by NWS

Home | Current Version | Previous Version | Graphics & Text | Print | Product List | Glossary On
Versions: 1 2 3 4 5 6 7 8 9 10 11 12 13 14 15 16 17 18 19 20 21 22 23 24 25 26 27 28 29 30 31 32 33 34 35 36 37 38 39 40 41 42 43 44 45 46 47 48 49 50
000
ASUS43 KMKX 141311
RWRWI

WISCONSIN REGIONAL WEATHER ROUNDUP
NATIONAL WEATHER SERVICE MILWAUKEE/SULLIVAN WI
800 AM CDT MON JUL 14 2014

NOTE: "FAIR" INDICATES FEW OR NO CLOUDS BELOW 12,000 FEET WITH NO
SIGNIFICANT WEATHER AND/OR OBSTRUCTIONS TO VISIBILITY.

WIZ001-002-006>008-014>016-023>028-141400-
NORTHWEST WISCONSIN

CITY           SKY/WX    TMP DP  RH WIND       PRES   REMARKS
SUPERIOR ARPT  CLOUDY    53  49  86 W10       29.84S
ASHLAND        CLOUDY    54  52  93 SW3       29.84S
HAYWARD        LGT RAIN  53  49  86 VRB3      29.86R
SIREN          CLOUDY    54  51  90 NW10      29.89R
RICE LAKE      CLOUDY    58  51  76 W8        29.88S
LADYSMITH      CLOUDY    58  52  82 S5        29.87S
EAU CLAIRE     LGT RAIN  59  54  83 W6        29.87S
MENOMONIE      CLOUDY    59  53  79 SW7       29.88S
NEW RICHMOND   PTSUNNY   59  51  74 W9        29.89S
OSCEOLA        MOSUNNY   60  49  66 W16       29.91S
$$

WIZ003>005-009-010-017-018-141400-
NORTH CENTRAL WISCONSIN

CITY           SKY/WX    TMP DP  RH WIND       PRES   REMARKS
WOODRUFF       CLOUDY    57  51  81 W3        29.84S
RHINELANDER    CLOUDY    56  53  90 W6        29.85R
EAGLE RIVER    CLOUDY    54  51  89 CALM      29.84S
LAND O LAKES   CLOUDY    55  49  82 CALM      29.84S
PHILLIPS       CLOUDY    54  50  87 W3        29.85S
TOMAHAWK       CLOUDY    54  52  95 CALM      29.86R
MEDFORD        CLOUDY    55  52  87 W5        29.86S
MERRILL        CLOUDY    56  53  90 W3        29.85R
$$

WIZ029-030-035-036-043>047-141400-
CENTRAL WISCONSIN

CITY           SKY/WX    TMP DP  RH WIND       PRES   REMARKS
WAUSAU         CLOUDY    58  51  78 NW8       29.84R
MOSINEE        CLOUDY    57  55  94 VRB5      29.86R
MARSHFIELD     CLOUDY    58  54  86 NW6       29.86R
STEVENS POINT  CLOUDY    58  52  81 CALM      29.85S
WAUPACA        SUNNY     65  56  72 W7        29.84S
WAUTOMA        SUNNY     62  55  77 CALM      29.86R
WISC RAPIDS    MOSUNNY   60  54  80 W8        29.86S
CAMP DOUGLAS   MOSUNNY   61  59  94 W6        29.87R
$$

WIZ011>013-019>022-031-037>040-048>050-141400-
NORTHEAST WISCONSIN

CITY           SKY/WX    TMP DP  RH WIND       PRES   REMARKS
ANTIGO         CLOUDY    56  53  89 CALM      29.85R
STURGEON BAY   MOSUNNY   64  55  72 W8        29.83S
GREEN BAY      SUNNY     63  55  75 SW3       29.84R
MANITOWOC      SUNNY     66  55  67 W8        29.84S
APPLETON       MOSUNNY   63  54  72 W8        29.84S
CLINTONVILLE   CLOUDY    59  52  77 SW3       29.83F
OSHKOSH        SUNNY     65  55  70 W5        29.84S
$$

WIZ032>034-041-042-053>061-141400-
SOUTHWEST WISCONSIN

CITY           SKY/WX    TMP DP  RH WIND       PRES   REMARKS
LA CROSSE      PTSUNNY   65  56  72 CALM      29.89R
SPARTA         MOSUNNY   59  55  88 CALM      29.89R
VIROQUA        FAIR      60  55  82 W5        29.90R
BOSCOBEL       PTSUNNY   62  60  93 SW3       29.89R FOG
PRAIRIE DU CHI SUNNY     64  52  65 NW3       29.89S
PLATTEVILLE    FAIR      66  62  85 W5        29.90R
$$

WIZ056-057-062-063-064-067-068-141400-
SOUTH CENTRAL WISCONSIN

CITY           SKY/WX    TMP DP  RH WIND       PRES   REMARKS
BARABOO/DELLS  SUNNY     63  55  76 W5        29.87R
LONE ROCK      FOG       62  59  90 W3        29.88R VSB 1
WATERTOWN      MOSUNNY   64  57  77 W3        29.86S
MADISON        PTSUNNY   66  55  67 CALM      29.87R
MIDDLETON      FAIR      66  60  82 CALM      29.88S
MONROE         MOSUNNY   66  55  68 SW5       29.88S
JANESVILLE     MOSUNNY   66  55  68 SW5       29.86F
$$

WIZ051-052-058>065-066-070>072-141400-
SOUTHEAST WISCONSIN

CITY           SKY/WX    TMP DP  RH WIND       PRES   REMARKS
MILWAUKEE      MOSUNNY   71  51  49 W5        29.86F
WAUKESHA       MOSUNNY   64  54  68 CALM      29.87S
MILWAUKEE/TIMM MOSUNNY   66  52  59 SW13      29.86S
RACINE         CLOUDY    66  58  75 W5        29.88S
BURLINGTON     MOSUNNY   63  59  87 SW6       29.86F
KENOSHA        CLOUDY    65  60  84 SW5       29.87R
FOND DU LAC    SUNNY     66  55  67 SW5       29.85S
SHEBOYGAN      SUNNY     64  57  78 SW3       29.85R
WEST BEND      SUNNY     66  54  63 CALM      29.85F
JUNEAU         MOSUNNY   62  41  46 S6        29.87S
$$

LSZ147-162-141400-
LAKE SUPERIOR

STATION/POSITION TIME  TEMP    WIND        PRES    WAVE
                       AIR SEA DIR/SP/G            HT/PER
                 (UTC) (F)     (DEG/KT/KT) (MB)    (FT/S)
W MID LAKE BUOY  1250   43 38  250/  4/  4 1009.9R   1
PORT WING        1240   55     260/  9/ 13 1010.5R
SAXON HARBOR     1240          280/  5/  9 1010.5R
$$

LMZ867-665-643>646-141400-
LAKE MICHIGAN

STATION/POSITION TIME  TEMP    WIND        PRES    WAVE
                       AIR SEA DIR/SP/G            HT/PER
                 (UTC) (F)     (DEG/KT/KT) (MB)    (FT/S)
N MID LAKE BUOY  1250   59 59  200/  4/  4 1008.8S   1
NORTHPORT PIER   1200   62     250/  3/  5 1009.8S
KEWAUNEE LAKESHO 1200   61     300/  4/  5 1010.8S
SHEBOYGAN LAKESH 1300   68     260/  6/  6 1010.3F
PORT WASHINGTON  1200   68     270/  5/  7 1011.2F
MILWAUKEE LAKESH 1200   65      CALM  /  1   N/A
S MID LAKE BUOY  1250   65 62  240/  2/  2 1011.0S   0
KENOSHA   LAKESH 1300   69     230/  6/ 10   N/A
$$

TC  - TEMPERATURE IN CELSIUS
VSB - VISIBILITY IN STATUTE MILES
WCI - WIND CHILL INDEX
HX  - HEAT INDEX




USA.gov is the U.S. government's official web portal to all federal, state and local government web resources and services.